Weather History for KMGM - August, 2013

Change the Weather History Date:

Monday, August 5, 2013

  Actual Average Record
Temperature  
Mean Temperature 81 °F 82 °F  
Max Temperature 90 °F 92 °F 103 °F (1947)
Min Temperature 72 °F 72 °F 61 °F (1950)
Cooling Degree Days 16 17  
Month to date cooling degree days 89 85  
Year to date cooling degree days 1415 1364  
Since 1 June cooling degree days 1056 1025  
Growing Degree Days 31 (Base 50)    
Moisture  
Dew Point 72 °F    
Average Humidity 76    
Maximum Humidity 94    
Minimum Humidity 57    
Precipitation  
Precipitation 0.00 in 0.14 in 1.68 in (1983)
Month to date precipitation 1.03 0.70  
Year to date precipitation 39.95 33.45  
Sea Level Pressure  
Sea Level Pressure 30.01 in    
Wind  
Wind Speed 2 mph (WNW)    
Max Wind Speed 9 mph    
Max Gust Speed 12 mph    
Visibility 8 miles    
Events      
T = Trace of Precipitation, MM = Missing Value Source: NWS Daily Summary

Daily Weather History Graph

Daily Weather History Graph

Search for Another Location

Airport or City:

Trip Planner

Search our weather history database for the weather conditions in past years. The results will help you decide how hot, cold, wet, or windy it might be!

Date:

Astronomy

Aug. 05, 2013 Rise Set
Actual Time 6:03 AM CDT 7:39 PM CDT
Civil Twilight 5:36 AM CDT 8:05 PM CDT
Nautical Twilight 5:04 AM CDT 8:37 PM CDT
Astronomical Twilight 4:31 AM CDT 9:10 PM CDT
Moon 4:57 AM CDT (8/5) 6:41 PM CDT (8/5)
Length of Visible Light 14h 29m
Length of Day
13h 36m
Waning Crescent, 1% of the Moon is Illuminated
Aug 5
Waning Crescent
Aug 6
New
Aug 14
First Quarter
Aug 20
Full
Aug 28
Last Quarter

Hourly Weather History & Observations

Time (CDT) Temp. Heat Index Dew Point Humidity Pressure Visibility Wind Dir Wind Speed Gust Speed Precip Events Conditions
12:53 AM 77.0 °F - 73.0 °F 88% 30.01 in 9.0 mi Calm Calm - N/A   Clear
1:53 AM 75.0 °F - 72.0 °F 90% 30.00 in 4.0 mi Calm Calm - N/A   Clear
2:53 AM 75.0 °F - 72.0 °F 90% 29.99 in 6.0 mi Calm Calm - N/A   Clear
3:53 AM 73.9 °F - 71.1 °F 91% 30.00 in 5.0 mi Calm Calm - N/A   Clear
4:53 AM 73.0 °F - 71.1 °F 93% 30.01 in 6.0 mi Calm Calm - N/A   Clear
5:53 AM 73.9 °F - 71.1 °F 91% 30.01 in 8.0 mi Calm Calm - N/A   Clear
6:53 AM 75.0 °F - 73.0 °F 94% 30.03 in 4.0 mi Calm Calm - N/A   Clear
7:53 AM 77.0 °F - 72.0 °F 84% 30.04 in 9.0 mi Calm Calm - N/A   Clear
8:53 AM 80.1 °F 83.6 °F 71.1 °F 74% 30.05 in 10.0 mi North 3.5 mph - N/A   Clear
9:53 AM 82.0 °F 85.9 °F 70.0 °F 67% 30.05 in 10.0 mi Calm Calm - N/A   Clear
10:53 AM 84.9 °F 88.2 °F 68.0 °F 57% 30.05 in 10.0 mi Calm Calm - N/A   Clear
11:53 AM 86.0 °F 91.5 °F 71.1 °F 61% 30.04 in 10.0 mi Variable 3.5 mph - N/A   Clear
12:53 PM 86.0 °F 90.7 °F 70.0 °F 59% 30.02 in 10.0 mi West 4.6 mph - N/A   Clear
1:53 PM 86.0 °F 91.5 °F 71.1 °F 61% 30.01 in 10.0 mi WNW 6.9 mph - N/A   Clear
2:53 PM 84.9 °F 90.1 °F 71.1 °F 63% 29.99 in 10.0 mi WNW 6.9 mph - N/A   Clear
3:53 PM 86.0 °F 92.2 °F 72.0 °F 63% 29.98 in 10.0 mi West 3.5 mph - N/A   Clear
4:53 PM 88.0 °F 93.8 °F 71.1 °F 57% 29.98 in 10.0 mi NNW 4.6 mph - N/A   Clear
5:53 PM 87.1 °F 92.8 °F 71.1 °F 59% 29.97 in 10.0 mi Calm Calm - N/A   Clear
6:53 PM 84.9 °F 92.1 °F 73.9 °F 69% 29.99 in 10.0 mi Calm Calm - N/A   Partly Cloudy
7:53 PM 81.0 °F 86.7 °F 75.0 °F 82% 30.00 in 10.0 mi Calm Calm - N/A   Clear
8:53 PM 79.0 °F - 75.0 °F 88% 29.99 in 9.0 mi SSE 3.5 mph - N/A   Clear
9:53 PM 78.1 °F - 73.9 °F 87% 29.98 in 10.0 mi Calm Calm - N/A   Clear
10:53 PM 78.1 °F - 73.9 °F 87% 29.99 in 6.0 mi Calm Calm - N/A   Clear
11:53 PM 77.0 °F - 73.9 °F 90% 29.97 in 5.0 mi Calm Calm - N/A   Clear